METEOSAT 4 (MOP 1)

导读

METEOSAT 4(又称MOP 1)是欧洲空间局(ESA)发射的第四代气象卫星,于1989年3月6日发射升空,属于欧洲静止气象卫星系列(Meteosat),运行在地球同步轨道。它承担着欧洲及大西洋区域的气象观测任务,通过可见光和红外扫描成像,持续监测大气运动、云层分布、地表温度等气象要素,为天气预报、气候研究提供关键数据,为欧洲气象业务服务延续了近十年的观测能力,是欧洲早期静止气象卫星网络的重要组成部分。

Basic Information
目录编号:
19876
目录名称:
METEOSAT 4 (MOP 1)
国际标识:
1989-020B
轨道中心:
EARTH
卫星名称:
METEOSAT 4 (MOP 1)
卫星全名:
--
卫星状态:
在轨 (已飞行13704 天)
发射日期:
1989-03-06 UTC
国别 :
(ESA)
星等 :
--
This satellite is enrolled in the Space Conjunction Data Service (SCDS) and the current flight risk assessment level is: No High Risk
Orbit Information
数据来源 国际轨道数据 AOE轨道数据
星历时间 2026-09-11T17:40:11+0800
18小时前
查看轨道信息
2026-09-06T14:00:00+0800
5天前
查看轨道信息
半长轴 43075.413km 43075.118km
偏心率 0.002291 0.0022654
轨道倾角 14.841° 14.843°
近地点辐角 213.313° 212.736°
升交点赤经 345.733° 345.772°
平近点角 177.871° 176.977°
近地点 36598.59km 36599.398km
远地点 36795.962km 36794.564km
周期 1482.873分钟 1482.858分钟
每日圈数 0.971088 0.971098
Detailed Information
使用方式:
暂无
2D Orbit Map
3D Orbit Map
Orbit Altitude Analysis Chart
Orbit Inclination Analysis Chart
Orbit Comprehensive Analysis Chart
View Comprehensive Chart
Miss Distance Evolution Trend with All Objects
Collision Probability Evolution Trend with All Objects